Weather History for Meacham, OR

Change the Weather History Date:

Tuesday, May 6, 2014

  Actual Average Record
Temperature  
Mean Temperature 42 °F -  
Max Temperature 54 °F 55 °F 73 °F (1998)
Min Temperature 32 °F 29 °F 24 °F (2000)
Degree Days  
Heating Degree Days 23    
Moisture  
Dew Point 35 °F    
Average Humidity 73    
Maximum Humidity 96    
Minimum Humidity 48    
Precipitation  
Precipitation 0.07 in - - ()
Sea Level Pressure  
Sea Level Pressure 29.93 in    
Wind  
Wind Speed 2 mph (NE)    
Max Wind Speed 6 mph    
Max Gust Speed -    
Visibility 10 miles    
Events Rain    
Averages and records for this station are not official NWS values.
T = Trace of Precipitation, MM = Missing Value Source: NWS Daily Summary

Daily Weather History Graph

Daily Weather History Graph

Search for Another Location

Airport:

Trip Planner

Search our weather history database for the weather conditions in past years. The results will help you decide how hot, cold, wet, or windy it might be!

Date:

Astronomy

May. 06, 2014 Rise Set
Actual Time 5:34 AM PDT 8:06 PM PDT
Civil Twilight 5:01 AM PDT 8:40 PM PDT
Nautical Twilight 4:19 AM PDT 9:22 PM PDT
Astronomical Twilight 3:31 AM PDT 10:10 PM PDT
Moon 11:58 AM PDT (5/6) 1:25 AM PDT (5/6)
Length of Visible Light 15h 39m
Length of Day
14h 32m
Waxing Crescent, 47% of the Moon is Illuminated
May 6
Waxing Crescent
May 6
First Quarter
May 14
Full
May 21
Last Quarter
May 28
New

Hourly Weather History & Observations

Time (PDT) Temp. Windchill Dew Point Humidity Pressure Visibility Wind Dir Wind Speed Gust Speed Precip Events Conditions
4:47 AM 32.0 °F - 30.0 °F 92% 29.92 in 10.0 mi Calm Calm - N/A   Overcast
4:56 AM 32.0 °F - 30.0 °F 92% 29.95 in 10.0 mi Calm Calm - N/A   Mostly Cloudy
5:56 AM 34.0 °F - 32.0 °F 92% 29.95 in 10.0 mi Calm Calm - N/A   Overcast
6:56 AM 37.0 °F - 35.1 °F 93% 29.95 in 10.0 mi Calm Calm - N/A   Overcast
7:07 AM 37.9 °F - 36.0 °F 93% 29.93 in 10.0 mi Calm Calm - N/A   Overcast
7:56 AM 41.0 °F - 37.0 °F 86% 29.96 in 10.0 mi Calm Calm - N/A   Overcast
8:56 AM 42.1 °F 39.2 °F 36.0 °F 79% 29.98 in 10.0 mi Variable 4.6 mph - N/A   Overcast
9:40 AM 43.0 °F 40.3 °F 36.0 °F 76% 29.93 in 10.0 mi Variable 4.6 mph - N/A   Overcast
9:56 AM 44.1 °F 41.5 °F 37.0 °F 76% 29.97 in 10.0 mi Variable 4.6 mph - N/A   Overcast
10:56 AM 45.0 °F 42.6 °F 36.0 °F 71% 29.97 in 10.0 mi Variable 4.6 mph - N/A   Overcast
11:16 AM 45.0 °F - 35.1 °F 68% 29.93 in 10.0 mi Calm Calm - N/A   Overcast
11:33 AM 45.0 °F - 36.0 °F 71% 29.93 in 10.0 mi Calm Calm - N/A   Overcast
11:40 AM 46.0 °F - 36.0 °F 68% 29.93 in 10.0 mi Calm Calm - N/A   Overcast
11:56 AM 46.9 °F - 35.1 °F 63% 29.96 in 10.0 mi Variable 4.6 mph - N/A   Overcast
12:20 PM 46.9 °F - 35.1 °F 63% 29.92 in 10.0 mi Variable 5.8 mph - N/A   Overcast
12:33 PM 48.0 °F - 35.1 °F 61% 29.91 in 10.0 mi Variable 3.5 mph - N/A   Overcast
1:56 PM 52.0 °F - 36.0 °F 54% 29.93 in 10.0 mi Variable 5.8 mph - N/A   Mostly Cloudy
2:56 PM 52.0 °F - 35.1 °F 53% 29.92 in 10.0 mi Variable 3.5 mph - N/A   Overcast
3:56 PM 51.1 °F - 34.0 °F 52% 29.91 in 10.0 mi Calm Calm - N/A   Mostly Cloudy
4:56 PM 52.0 °F - 33.1 °F 49% 29.90 in 10.0 mi Variable 4.6 mph - N/A   Mostly Cloudy
5:56 PM 51.1 °F - 32.0 °F 48% 29.90 in 10.0 mi North - - N/A   Overcast
6:56 PM 50.0 °F - 35.1 °F 57% 29.90 in 10.0 mi Calm Calm - N/A   Overcast
7:56 PM 45.0 °F 41.8 °F 37.0 °F 74% 29.91 in 10.0 mi NE 5.8 mph - 0.01 in Rain Light Rain
8:56 PM 42.1 °F 40.2 °F 37.9 °F 85% 29.94 in 7.0 mi Variable 3.5 mph - 0.06 in Rain Light Rain
9:56 PM 42.1 °F - 39.0 °F 89% 29.93 in 10.0 mi Calm Calm - 0.00 in   Overcast
10:56 PM 41.0 °F - 35.1 °F 79% 29.93 in 10.0 mi Calm Calm - 0.00 in Rain Light Rain
11:56 PM 39.0 °F - 37.9 °F 96% 29.95 in 10.0 mi Calm Calm - 0.00 in   Overcast